Location: *
(58.7167°N, 26.1833°E)
Time: 04:03:11
(UTC+00:00)

Cosmos 2315 Rocket - Pass Details

Date: 25 August 2019
Orbit: 965 x 1003 km, 82.9° (Epoch: 17 September)

Event Time Altitude Azimuth Distance (km) Brightness Sun altitude
Rises 18:51:22 0° 175° (S) 3,713 6.6 -9.2°
Reaches altitude 10° 18:53:55 10° 172° (S) 2,763 5.9 -9.4°
Maximum altitude 19:00:08 60° 94° (E) 1,129 4.1 -10.1°
Drops below altitude 10° 19:06:20 10° 17° (NNE) 2,757 6.7 -10.7°
Sets 19:08:53 0° 14° (NNE) 3,703 7.5 -10.9°
